アフリカーノ彗星

C/2018 W2 ( Africano )

English version
Home page
Updated on April 21, 2019

---------------------------------------------------------------------

・ プロフィール

発見日 2018年11月27日
発見光度 18.3等、18.2等
発見者 B. M. Africano (Mount Lemmon), H. Groeller (Catalina Sky Survey)

・ 写真集

・ 軌道要素

Epoch 2019 Aug. 25.0 TT = JDT 2458720.5
T 2019 Sept. 5.73020 TT                                 MPCW
q   1.4545599            (2000.0)            P               Q
z  -0.0005008      Peri.  157.97754     +0.92113077     +0.38818188
 +/-0.0000128      Node   181.84992     +0.04815573     -0.04006818
e   1.0007284      Incl.  116.61601     +0.38626304     -0.92071134
From 247 observations 2018 Nov. 27-2019 Mar. 8, mean residual 0".5.

・ 星図

・ 光度変化

        m1 = 9.5 + 5 logΔ + 10.0 log r

---------------------------------------------------------------------

軌道要素はM.P.E.C. 2019-E73に掲載されたものです。
星図はステラナビゲータ Ver.10 (アストロアーツ) で作成したものです。
光度グラフはComet for Windowsで作成したものです。

---------------------------------------------------------------------

Copyright(C) Seiichi Yoshida (comet@aerith.net). All rights reserved.